QZS-1R (MICHIBIKI-1R)

Last updated on Wed Sep 09 2026 00:03:03 GMT+0000 (Coordinated Universal Time)

1 49336U 21096A 26251.39871295 -.00000251 00000+0 00000+0 0 9990 2 49336 37.6333 78.3521 0742974 269.8138 276.6611 1.00289112 17841
UTC large
Height (km)
Speed (km/s)
/
Latitude / Longitude
Inclination (degrees)
Orbital Period (minutes)
Azimuth
Elevation
Range (km)
Doppler Factor

Next 0 passes for location: London (51.5072 / 0.1276)

No passes found over London.
QZS-1R (MICHIBIKI-1R)